Voltar ao catálogo

COSMOS 397 DEB

AtivoLEO
NORAD 5280·DEBRIS·🇷🇺 Russia

Lançado Feb 25, 1971 de Baikonur Cosmodrome

Loading…

Próximas Passagens (próximas 24 horas)

TLE

AtualizadoSource: Space-Track

Época: Sep 14, 2026, 08:45 UTC

1 05280U 71015BF  26257.36516836  .00001368  00000-0  46310-3 0  9994
2 05280  65.6579  24.7158 0739282 258.3312  93.3932 13.43950885655198

Acompanhe COSMOS 397 DEB em tempo real com AllMySat

Download on the App Store